Location: Grasslands National Park East Block
(49.0708°N, 106.5295°W)
Time: 12:37:16
(UTC-06:00)

Vanguard 1 - Pass Details

Date: 29 September 2019
Orbit: 653 x 3830 km, 34.2° (Epoch: 22 October)

Event Time Altitude Azimuth Distance (km) Brightness Sun altitude
Rises 01:16:36 0° 232° (SW) 6,934 - -43.1°
Reaches altitude 10° 01:21:02 10° 226° (SW) 6,234 - -43.0°
Maximum altitude 01:40:55 48° 161° (SSE) 4,550 - -42.3°
Exits shadow 01:44:11 46° 143° (SE) 4,614 13.0 -42.2°
Drops below altitude 10° 02:01:06 10° 97° (E) 6,347 14.3 -41.3°
Sets 02:05:38 0° 92° (E) 7,065 14.7 -41.0°
